GIA009 WIKK-WIII

Flight info

Callsign GIA009
Flight time 0h 44m
Altitude 31000
Route BOSLO W26 BUNIK
Aircraft B738/M-SDE2E3FGHIRWXY/LB1

Departure

Time 2026-04-22 16:11
Airport Depati Amir Airport (WIKK)

Arrival

Time 2026-04-22 16:55
Airport Soekarno-Hatta International Airport (WIII)
Time Latitude Longitude Altitude Speed Heading
2026-04-22 15:11 -2.15734 106.14002 101 ft 0 kts 76°
2026-04-22 16:01 -2.15737 106.13990 100 ft 3 kts 86°
2026-04-22 16:02 -2.15736 106.13972 101 ft 3 kts 123°
2026-04-22 16:02 -2.15723 106.13959 100 ft 3 kts 160°
2026-04-22 16:02 -2.15716 106.13957 100 ft 0 kts 165°
2026-04-22 16:05 -2.15717 106.13958 101 ft 1 kts 165°
2026-04-22 16:05 -2.15735 106.13960 101 ft 4 kts 175°
2026-04-22 16:05 -2.15777 106.13965 102 ft 8 kts 167°
2026-04-22 16:06 -2.15844 106.13981 102 ft 12 kts 164°
2026-04-22 16:06 -2.15933 106.14007 103 ft 15 kts 163°
2026-04-22 16:06 -2.16041 106.14038 105 ft 17 kts 165°
2026-04-22 16:06 -2.16163 106.14070 106 ft 19 kts 165°
2026-04-22 16:07 -2.16286 106.14104 108 ft 18 kts 164°
2026-04-22 16:07 -2.16404 106.14136 109 ft 14 kts 165°
2026-04-22 16:07 -2.16477 106.14119 109 ft 12 kts 232°
2026-04-22 16:07 -2.16508 106.14040 110 ft 13 kts 253°
2026-04-22 16:08 -2.16573 106.13996 111 ft 13 kts 174°
2026-04-22 16:08 -2.16657 106.14016 112 ft 12 kts 163°
2026-04-22 16:08 -2.16741 106.14039 113 ft 13 kts 165°
2026-04-22 16:08 -2.16831 106.14062 114 ft 14 kts 165°
2026-04-22 16:09 -2.16932 106.14090 114 ft 16 kts 165°
2026-04-22 16:09 -2.17024 106.14139 115 ft 12 kts 150°
2026-04-22 16:09 -2.17068 106.14135 114 ft 0 kts 233°
2026-04-22 16:09 -2.17067 106.14131 114 ft 1 kts 269°
2026-04-22 16:10 -2.17061 106.14128 115 ft 3 kts 330°
2026-04-22 16:10 -2.17055 106.14125 115 ft 1 kts 335°
2026-04-22 16:10 -2.17047 106.14122 114 ft 5 kts 341°
2026-04-22 16:10 -2.16473 106.13966 110 ft 121 kts 344°
2026-04-22 16:11 -2.15440 106.13678 317 ft 174 kts 343°
2026-04-22 16:11 -2.14211 106.13319 993 ft 200 kts 346°
2026-04-22 16:11 -2.12837 106.13032 1826 ft 212 kts 358°
2026-04-22 16:11 -2.11377 106.13475 2059 ft 239 kts 37°
2026-04-22 16:12 -2.10436 106.14898 2343 ft 258 kts 76°
2026-04-22 16:12 -2.10574 106.16686 2853 ft 266 kts 112°
2026-04-22 16:12 -2.11759 106.18083 3453 ft 269 kts 148°
2026-04-22 16:12 -2.13553 106.18578 4061 ft 271 kts 178°
2026-04-22 16:13 -2.15448 106.18551 4730 ft 274 kts 184°
2026-04-22 16:13 -2.17357 106.18447 5465 ft 277 kts 176°
2026-04-22 16:13 -2.19270 106.18682 6388 ft 277 kts 171°
2026-04-22 16:13 -2.21182 106.19010 7185 ft 281 kts 170°
2026-04-22 16:14 -2.23126 106.19351 7968 ft 285 kts 170°
2026-04-22 16:14 -2.25095 106.19684 8758 ft 289 kts 171°
2026-04-22 16:14 -2.27076 106.20005 9544 ft 293 kts 171°
2026-04-22 16:14 -2.29108 106.20321 10266 ft 298 kts 171°
2026-04-22 16:15 -2.30496 106.20532 10769 ft 300 kts 171°
2026-04-22 16:15 -2.32571 106.20841 11510 ft 303 kts 172°
2026-04-22 16:15 -2.35358 106.21247 12476 ft 308 kts 172°
2026-04-22 16:15 -2.37493 106.21554 13191 ft 312 kts 172°
2026-04-22 16:16 -2.39651 106.21863 13904 ft 315 kts 172°
2026-04-22 16:16 -2.41836 106.22173 14540 ft 319 kts 172°
2026-04-22 16:16 -2.44044 106.22486 15180 ft 322 kts 172°
2026-04-22 16:16 -2.46280 106.22802 15832 ft 326 kts 172°
2026-04-22 16:17 -2.47770 106.23013 16259 ft 327 kts 172°
2026-04-22 16:17 -2.50036 106.23333 16901 ft 331 kts 172°
2026-04-22 16:17 -2.52331 106.23657 17533 ft 335 kts 172°
2026-04-22 16:17 -2.54653 106.23984 18153 ft 338 kts 171°
2026-04-22 16:18 -2.56999 106.24315 18705 ft 341 kts 171°
2026-04-22 16:18 -2.59366 106.24649 19276 ft 343 kts 171°
2026-04-22 16:18 -2.61746 106.24984 19794 ft 348 kts 171°
2026-04-22 16:18 -2.64177 106.25328 19896 ft 366 kts 171°
2026-04-22 16:19 -2.66757 106.25692 20013 ft 382 kts 171°
2026-04-22 16:19 -2.69443 106.26071 20142 ft 396 kts 171°
2026-04-22 16:19 -2.72200 106.26460 20458 ft 403 kts 171°
2026-04-22 16:19 -2.74980 106.26852 20928 ft 405 kts 171°
2026-04-22 16:20 -2.77771 106.27245 21432 ft 406 kts 171°
2026-04-22 16:20 -2.80578 106.27640 21889 ft 408 kts 171°
2026-04-22 16:20 -2.83396 106.28037 22317 ft 411 kts 171°
2026-04-22 16:20 -2.86240 106.28438 22736 ft 414 kts 171°
2026-04-22 16:21 -2.89103 106.28842 23156 ft 416 kts 171°
2026-04-22 16:21 -2.91981 106.29248 23554 ft 419 kts 171°
2026-04-22 16:21 -2.94885 106.29657 23900 ft 421 kts 171°
2026-04-22 16:21 -2.97791 106.30067 24238 ft 423 kts 171°
2026-04-22 16:22 -3.03654 106.30894 24899 ft 428 kts 171°
2026-04-22 16:22 -3.06609 106.31311 25227 ft 430 kts 171°
2026-04-22 16:22 -3.09580 106.31730 25550 ft 432 kts 171°
2026-04-22 16:23 -3.15521 106.32568 26180 ft 436 kts 171°
2026-04-22 16:23 -3.18533 106.32993 26481 ft 438 kts 171°
2026-04-22 16:23 -3.21562 106.33420 26782 ft 440 kts 171°
2026-04-22 16:24 -3.24602 106.33849 27093 ft 442 kts 171°
2026-04-22 16:24 -3.30719 106.34712 27654 ft 446 kts 171°
2026-04-22 16:24 -3.33799 106.35147 27924 ft 448 kts 171°
2026-04-22 16:25 -3.36899 106.35585 28174 ft 451 kts 172°
2026-04-22 16:25 -3.43157 106.36468 28706 ft 455 kts 172°
2026-04-22 16:25 -3.46309 106.36913 28952 ft 457 kts 172°
2026-04-22 16:26 -3.49465 106.37359 29229 ft 459 kts 172°
2026-04-22 16:26 -3.52582 106.37799 29607 ft 457 kts 172°
2026-04-22 16:26 -3.55727 106.38243 30023 ft 455 kts 172°
2026-04-22 16:26 -3.58862 106.38686 30334 ft 455 kts 172°
2026-04-22 16:27 -3.61999 106.39129 30591 ft 456 kts 172°
2026-04-22 16:27 -3.65139 106.39612 30859 ft 456 kts 170°
2026-04-22 16:27 -3.71404 106.40779 30900 ft 457 kts 169°
2026-04-22 16:28 -3.77630 106.41993 30902 ft 455 kts 169°
2026-04-22 16:28 -3.83838 106.43176 30904 ft 454 kts 169°
2026-04-22 16:29 -3.90051 106.44340 30902 ft 454 kts 169°
2026-04-22 16:29 -3.96259 106.45497 30900 ft 454 kts 169°
2026-04-22 16:30 -4.02436 106.46648 30901 ft 454 kts 169°
2026-04-22 16:30 -4.08662 106.47810 30901 ft 454 kts 169°
2026-04-22 16:31 -4.14904 106.48975 30916 ft 461 kts 169°
2026-04-22 16:31 -4.21263 106.50162 30974 ft 468 kts 169°
2026-04-22 16:32 -4.27680 106.51361 31064 ft 474 kts 169°
2026-04-22 16:32 -4.34201 106.52579 31187 ft 478 kts 169°
2026-04-22 16:33 -4.40759 106.53804 31320 ft 481 kts 169°
2026-04-22 16:33 -4.47309 106.55028 31018 ft 470 kts 169°
2026-04-22 16:34 -4.50487 106.55622 30925 ft 456 kts 169°
2026-04-22 16:34 -4.53570 106.56198 30678 ft 447 kts 169°
2026-04-22 16:34 -4.56600 106.56765 30399 ft 439 kts 169°
2026-04-22 16:34 -4.59599 106.57325 29967 ft 436 kts 169°
2026-04-22 16:35 -4.62582 106.57882 29495 ft 433 kts 169°
2026-04-22 16:35 -4.65538 106.58435 29023 ft 429 kts 169°
2026-04-22 16:35 -4.68462 106.58982 28557 ft 425 kts 169°
2026-04-22 16:35 -4.71322 106.59516 28111 ft 422 kts 169°
2026-04-22 16:36 -4.74193 106.60053 27661 ft 418 kts 169°
2026-04-22 16:36 -4.77045 106.60587 27229 ft 415 kts 169°
2026-04-22 16:36 -4.79874 106.61116 26784 ft 412 kts 169°
2026-04-22 16:36 -4.82677 106.61640 26358 ft 409 kts 169°
2026-04-22 16:37 -4.85475 106.62107 25924 ft 407 kts 174°
2026-04-22 16:37 -4.88300 106.62171 25426 ft 406 kts 184°
2026-04-22 16:37 -4.91114 106.61892 24933 ft 406 kts 185°
2026-04-22 16:37 -4.93927 106.61582 24426 ft 406 kts 186°
2026-04-22 16:38 -4.96734 106.61269 23907 ft 402 kts 186°
2026-04-22 16:38 -4.99459 106.60969 23414 ft 397 kts 185°
2026-04-22 16:38 -5.02205 106.60673 22852 ft 397 kts 185°
2026-04-22 16:38 -5.04943 106.60384 22343 ft 395 kts 185°
2026-04-22 16:39 -5.07690 106.60098 21844 ft 394 kts 185°
2026-04-22 16:39 -5.10409 106.59817 21354 ft 392 kts 185°
2026-04-22 16:39 -5.13120 106.59538 20876 ft 390 kts 185°
2026-04-22 16:39 -5.15816 106.59261 20399 ft 389 kts 185°
2026-04-22 16:40 -5.18512 106.58984 19916 ft 388 kts 185°
2026-04-22 16:40 -5.21157 106.58713 19433 ft 387 kts 185°
2026-04-22 16:40 -5.26518 106.58163 18460 ft 386 kts 185°
2026-04-22 16:41 -5.29186 106.57889 17943 ft 385 kts 185°
2026-04-22 16:41 -5.31849 106.57615 17432 ft 383 kts 185°
2026-04-22 16:41 -5.34492 106.57343 16949 ft 380 kts 185°
2026-04-22 16:41 -5.37111 106.57074 16475 ft 378 kts 185°
2026-04-22 16:42 -5.39725 106.56806 16017 ft 375 kts 185°
2026-04-22 16:42 -5.42311 106.56540 15541 ft 373 kts 185°
2026-04-22 16:42 -5.44888 106.56275 15093 ft 371 kts 185°
2026-04-22 16:42 -5.47449 106.56012 14626 ft 369 kts 185°
2026-04-22 16:43 -5.50000 106.55749 14161 ft 368 kts 185°
2026-04-22 16:43 -5.52542 106.55488 13699 ft 366 kts 185°
2026-04-22 16:43 -5.55070 106.55228 13199 ft 364 kts 185°
2026-04-22 16:43 -5.57588 106.54970 12731 ft 362 kts 185°
2026-04-22 16:44 -5.60076 106.54714 12277 ft 359 kts 185°
2026-04-22 16:44 -5.62554 106.54459 11833 ft 356 kts 185°
2026-04-22 16:44 -5.65010 106.54206 11418 ft 353 kts 185°
2026-04-22 16:44 -5.67408 106.53959 11035 ft 349 kts 185°
2026-04-22 16:45 -5.69818 106.53712 10618 ft 344 kts 185°
2026-04-22 16:45 -5.72157 106.53471 10203 ft 333 kts 185°
2026-04-22 16:45 -5.74426 106.53237 9889 ft 320 kts 185°
2026-04-22 16:45 -5.76561 106.53016 9891 ft 297 kts 185°
2026-04-22 16:46 -5.78570 106.52809 9746 ft 287 kts 185°
2026-04-22 16:46 -5.80549 106.52606 9473 ft 284 kts 185°
2026-04-22 16:46 -5.82518 106.52404 9183 ft 283 kts 185°
2026-04-22 16:46 -5.84471 106.52203 8882 ft 282 kts 185°
2026-04-22 16:47 -5.86416 106.52003 8591 ft 281 kts 185°
2026-04-22 16:47 -5.88358 106.51804 8292 ft 280 kts 185°
2026-04-22 16:47 -5.89651 106.51671 7992 ft 283 kts 185°
2026-04-22 16:47 -5.92258 106.51403 7456 ft 285 kts 185°
2026-04-22 16:48 -5.94225 106.51200 7057 ft 283 kts 185°
2026-04-22 16:48 -5.96171 106.51000 6658 ft 279 kts 185°
2026-04-22 16:48 -5.98088 106.50802 6262 ft 275 kts 185°
2026-04-22 16:48 -5.99982 106.50607 5844 ft 272 kts 185°
2026-04-22 16:49 -6.01836 106.50416 5466 ft 263 kts 185°
2026-04-22 16:49 -6.03629 106.50231 5057 ft 255 kts 185°
2026-04-22 16:49 -6.05373 106.50051 4668 ft 249 kts 185°
2026-04-22 16:49 -6.07069 106.49877 4266 ft 243 kts 185°
2026-04-22 16:50 -6.08728 106.49706 3869 ft 237 kts 186°
2026-04-22 16:50 -6.10352 106.49539 3488 ft 231 kts 186°
2026-04-22 16:50 -6.11931 106.49376 3121 ft 225 kts 186°
2026-04-22 16:50 -6.13452 106.49220 2726 ft 220 kts 186°
2026-04-22 16:51 -6.14948 106.49066 2402 ft 211 kts 186°
2026-04-22 16:51 -6.16378 106.49067 2107 ft 203 kts 162°
2026-04-22 16:51 -6.17384 106.49911 1989 ft 184 kts 111°
2026-04-22 16:51 -6.17359 106.51125 2016 ft 176 kts 62°
2026-04-22 16:52 -6.16772 106.52178 1983 ft 170 kts 66°
2026-04-22 16:52 -6.16354 106.53267 1999 ft 168 kts 66°
2026-04-22 16:52 -6.15897 106.54358 1950 ft 171 kts 66°
2026-04-22 16:52 -6.15454 106.55450 1756 ft 167 kts 67°
2026-04-22 16:53 -6.15027 106.56519 1545 ft 164 kts 67°
2026-04-22 16:53 -6.14602 106.57588 1338 ft 165 kts 68°
2026-04-22 16:53 -6.14178 106.58653 1116 ft 164 kts 68°
2026-04-22 16:53 -6.13754 106.59718 919 ft 164 kts 68°
2026-04-22 16:54 -6.13334 106.60774 727 ft 162 kts 69°
2026-04-22 16:54 -6.12918 106.61818 526 ft 160 kts 69°
2026-04-22 16:54 -6.12513 106.62854 324 ft 159 kts 69°
2026-04-22 16:54 -6.12104 106.63874 97 ft 154 kts 69°
2026-04-22 16:55 -6.11729 106.64817 43 ft 132 kts 68°
2026-04-22 16:55 -6.11432 106.65563 39 ft 97 kts 69°
2026-04-22 16:55 -6.11266 106.65994 39 ft 31 kts 77°
2026-04-22 16:55 -6.11262 106.66206 39 ft 25 kts 99°
2026-04-22 16:56 -6.11342 106.66292 38 ft 19 kts 158°
2026-04-22 16:56 -6.11480 106.66348 37 ft 17 kts 158°
2026-04-22 16:56 -6.11529 106.66367 37 ft 5 kts 158°
2026-04-22 16:56 -6.11551 106.66376 37 ft 3 kts 158°
2026-04-22 16:57 -6.11583 106.66389 36 ft 10 kts 158°
2026-04-22 16:57 -6.11589 106.66392 35 ft 0 kts 158°
2026-04-22 16:57 -6.11604 106.66397 37 ft 7 kts 160°
2026-04-22 16:57 -6.11670 106.66382 37 ft 11 kts 228°
2026-04-22 16:58 -6.11693 106.66339 36 ft 11 kts 247°
2026-04-22 16:58 -6.11744 106.66306 37 ft 6 kts 155°
2026-04-22 16:58 -6.11772 106.66319 37 ft 2 kts 154°
2026-04-22 16:58 -6.11777 106.66321 37 ft 0 kts 161°
2026-04-22 16:59 -6.11780 106.66322 37 ft 1 kts 161°
2026-04-22 16:59 -6.11786 106.66324 37 ft 2 kts 163°
2026-04-22 16:59 -6.11795 106.66326 37 ft 0 kts 165°